STARLINK-35504, 66325

Orbit data source: Space-Track

STARLINK-35504, 66325 is a payload satellite owned by SpaceX/Seattle (US) in LEO that was launched on Thu, 06 Nov 2025 UTC via an FALCON 9 launch vehicle from the Air Force Eastern Test Range (AFETR). Payload-class satellites include a variety of spacecraft equipped with specific instruments for various scientific and technological missions. These include communications satellites like Starlink; space stations such as the ISS; scientific satellites like the Hubble; Earth observation satellites from companies like Planet Labs, Umbra, and HawkEye 360; GPS; miniature CubeSats for education and research; and military/defense satellites.

Loading next visibility...
Identifier
66325, 2025-253G
Orbit
LEO
Country
Flag of USUS
Related business
Manufacturer
SpaceX/Seattle
Mission
Operational Commercial Communications
Bus & Motor
STARLINK V2MO, Unknown motor
Mass
575 kg wet, ~530 kg dry
Launch date (UTC)
2025-11-06 (7 months ago)
Launch vehicle
FALCON 9
Launch site
Air Force Eastern Test Range (AFETR)
Object type
Payload
Rocket body
Debris
Shape & HBR
Box + 2 Pan, 17.7 m
Radar Cross Section
36.964 m², Large (>1 m²)

Expand to show TLE details & history
Last TLE update: 3 days ago

TLE from 3 days ago
0 STARLINK-35504
1 66325U 25253G   26170.58472823  .00014750  00000-0  54441-3 0  9992
2 66325  43.0030 357.4372 0001254 257.0063 103.0648 15.27583341 35829
Epoch: 2026-06-19T14:02Z
TLE epoch observation values (Epoch: 2026-06-19T14:02:00.519Z)
Latitude
-0.00005°
Longitude
-120.87661°
Altitude
483.009 km
Speed
7.626 km/s
True Right ascension
23h 49m 44s
True Declination
0° 00' 00"
Sunlit
Object was in daylight at epoch
Visualization orbit readout
Latitude
Unknown
Longitude
Unknown
Altitude
Unknown
Speed
Unknown
Apparent Right ascension
Unknown
Apparent Declination
Unknown
Sunlit
N/A
Visualization observer readout
Local Sidereal Time
20:17:15
Azimuth
Unknown
Elevation
Unknown
Doppler factor
Unknown
Orbital elements
Apogee altitude
485.844 km
Perigee altitude
484.123 km
Semi-major axis
6,863.121 km
Eccentricity
0.00013
Inclination
43.003°
RAAN
357.4372°
Arg. of periapsis
257.0063°
True anomaly
103.0788°
Mean anomaly
103.0648°
Eccentric anomaly
103.0718°
Mean motion
3.81734 °/min
Orbital period
94.31 mins
BSTAR
0.00054441
Loading maneuver chart data...
Computing Atmospheric mass density...
Loading historical data...
Loading historical data...
Loading historical data...
Loading historical data...
Loading historical data...
Loading historical data...
Loading historical data...

Documentation

Showing up to 5 results
|